Time,TemperatureF,DewpointF,PressureIn,WindDirection,WindDirectionDegrees,WindSpeedMPH,WindSpeedGustMPH,Humidity,HourlyPrecipIn,Conditions,Clouds,dailyrainin,SoftwareType,DateUTC
2013-01-01 00:00:00,27.6,25.6,29.69,WSW,250,4.0,5.0,92,0.00,,,0.00,VWS V14.01,2013-01-01 05:00:00,
2013-01-01 00:01:00,27.6,25.6,29.69,SW,229,3.0,5.0,92,0.00,,,0.00,VWS V14.01,2013-01-01 05:01:00,
2013-01-01 00:06:00,27.7,25.7,29.69,SW,224,3.0,4.0,92,0.00,,,0.00,VWS V14.01,2013-01-01 05:06:00,
2013-01-01 00:11:00,27.7,25.7,29.69,WSW,246,4.0,9.0,92,0.00,,,0.00,VWS V14.01,2013-01-01 05:11:00,
2013-01-01 00:16:00,27.8,25.8,29.69,SW,222,4.0,4.0,92,0.00,,,0.00,VWS V14.01,2013-01-01 05:16:00,
2013-01-01 00:21:00,27.7,25.7,29.69,WSW,237,0.0,9.0,92,0.00,,,0.00,VWS V14.01,2013-01-01 05:21:00,
2013-01-01 00:26:00,27.8,25.8,29.69,WSW,253,2.0,5.0,92,0.00,,,0.00,VWS V14.01,2013-01-01 05:26:00,
2013-01-01 00:31:00,28.0,26.2,29.68,West,261,5.0,9.0,93,0.00,,,0.00,VWS V14.01,2013-01-01 05:31:00,
2013-01-01 00:36:00,28.4,26.4,29.68,WSW,250,2.0,4.0,92,0.00,,,0.00,VWS V14.01,2013-01-01 05:36:00,
2013-01-01 00:41:00,28.5,26.5,29.69,SW,223,1.0,12.0,92,0.00,,,0.00,VWS V14.01,2013-01-01 05:41:00,
2013-01-01 00:46:00,28.7,26.4,29.69,West,273,1.0,7.0,91,0.00,,,0.00,VWS V14.01,2013-01-01 05:46:00,
2013-01-01 00:51:00,28.8,26.5,29.69,WNW,298,4.0,10.0,91,0.00,,,0.00,VWS V14.01,2013-01-01 05:51:00,
2013-01-01 00:56:00,29.0,26.4,29.69,WNW,302,10.0,12.0,90,0.00,,,0.00,VWS V14.01,2013-01-01 05:56:00,
2013-01-01 01:01:00,29.2,26.4,29.69,WNW,294,3.0,16.0,89,0.00,,,0.00,VWS V14.01,2013-01-01 06:01:00,
2013-01-01 01:06:00,29.2,26.4,29.69,WNW,282,4.0,7.0,89,0.00,,,0.00,VWS V14.01,2013-01-01 06:06:00,
2013-01-01 01:11:00,29.4,26.3,29.69,WSW,252,6.0,16.0,88,0.00,,,0.00,VWS V14.01,2013-01-01 06:11:00,
2013-01-01 01:16:00,29.5,26.1,29.70,West,273,12.0,17.0,87,0.00,,,0.00,VWS V14.01,2013-01-01 06:16:00,
2013-01-01 01:21:00,29.5,26.1,29.69,West,277,8.0,17.0,87,0.00,,,0.00,VWS V14.01,2013-01-01 06:21:00,
2013-01-01 01:26:00,29.7,25.5,29.69,WNW,289,8.0,14.0,84,0.00,,,0.00,VWS V14.01,2013-01-01 06:26:00,
2013-01-01 01:31:00,29.9,25.1,29.69,West,278,8.0,15.0,82,0.00,,,0.00,VWS V14.01,2013-01-01 06:31:00,
2013-01-01 01:36:00,30.0,25.2,29.69,WNW,296,6.0,14.0,82,0.00,,,0.00,VWS V14.01,2013-01-01 06:36:00,
2013-01-01 01:41:00,30.0,24.9,29.69,West,265,5.0,21.0,81,0.00,,,0.00,VWS V14.01,2013-01-01 06:41:00,
2013-01-01 01:46:00,30.2,24.5,29.69,West,281,4.0,12.0,79,0.00,,,0.00,VWS V14.01,2013-01-01 06:46:00,
2013-01-01 01:51:00,30.2,24.2,29.69,SSW,194,6.0,20.0,78,0.00,,,0.00,VWS V14.01,2013-01-01 06:51:00,
2013-01-01 01:56:00,30.1,24.1,29.69,WNW,284,5.0,20.0,78,0.00,,,0.00,VWS V14.01,2013-01-01 06:56:00,
2013-01-01 02:01:00,30.1,24.1,29.69,WNW,286,4.0,20.0,78,0.00,,,0.00,VWS V14.01,2013-01-01 07:01:00,
2013-01-01 02:06:00,30.0,23.7,29.70,WNW,301,6.0,15.0,77,0.00,,,0.00,VWS V14.01,2013-01-01 07:06:00,
2013-01-01 02:11:00,29.9,24.2,29.70,WNW,302,7.0,22.0,79,0.00,,,0.00,VWS V14.01,2013-01-01 07:11:00,
2013-01-01 02:16:00,29.9,23.9,29.70,West,269,13.0,16.0,78,0.00,,,0.00,VWS V14.01,2013-01-01 07:16:00,
2013-01-01 02:21:00,30.0,24.0,29.70,WNW,293,10.0,23.0,78,0.00,,,0.00,VWS V14.01,2013-01-01 07:21:00,
2013-01-01 02:26:00,29.9,23.9,29.70,WNW,291,14.0,23.0,78,0.00,,,0.00,VWS V14.01,2013-01-01 07:26:00,
2013-01-01 02:31:00,29.8,23.5,29.69,West,275,8.0,23.0,77,0.00,,,0.00,VWS V14.01,2013-01-01 07:31:00,
2013-01-01 02:36:00,29.9,23.3,29.69,WNW,284,15.0,15.0,76,0.00,,,0.00,VWS V14.01,2013-01-01 07:36:00,
2013-01-01 02:41:00,30.1,23.1,29.69,WNW,298,6.0,23.0,75,0.00,,,0.00,VWS V14.01,2013-01-01 07:41:00,
2013-01-01 02:46:00,30.0,22.7,29.68,West,267,7.0,12.0,74,0.00,,,0.00,VWS V14.01,2013-01-01 07:46:00,
2013-01-01 02:51:00,29.9,23.0,29.68,WSW,238,5.0,13.0,75,0.00,,,0.00,VWS V14.01,2013-01-01 07:51:00,
2013-01-01 02:56:00,30.0,23.0,29.69,West,276,15.0,20.0,75,0.00,,,0.00,VWS V14.01,2013-01-01 07:56:00,
2013-01-01 03:01:00,29.8,22.9,29.69,WNW,289,5.0,21.0,75,0.00,,,0.00,VWS V14.01,2013-01-01 08:01:00,
2013-01-01 03:06:00,29.7,23.4,29.70,West,274,13.0,14.0,77,0.00,,,0.00,VWS V14.01,2013-01-01 08:06:00,
2013-01-01 03:11:00,29.2,24.1,29.70,NW,324,9.0,15.0,81,0.00,,,0.00,VWS V14.01,2013-01-01 08:11:00,
2013-01-01 03:16:00,28.5,24.3,29.70,NW,321,4.0,10.0,84,0.00,,,0.00,VWS V14.01,2013-01-01 08:16:00,
2013-01-01 03:21:00,28.0,24.9,29.71,WNW,296,5.0,10.0,88,0.00,,,0.00,VWS V14.01,2013-01-01 08:21:00,
2013-01-01 03:26:00,27.5,25.0,29.71,WNW,294,4.0,7.0,90,0.00,,,0.00,VWS V14.01,2013-01-01 08:26:00,
2013-01-01 03:31:00,27.2,25.2,29.71,WNW,300,9.0,12.0,92,0.00,,,0.00,VWS V14.01,2013-01-01 08:31:00,
2013-01-01 03:35:00,27.1,25.1,29.71,West,271,10.0,18.0,92,0.00,,,0.00,VWS V14.01,2013-01-01 08:35:00,
2013-01-01 03:41:00,27.6,23.1,29.72,West,280,6.0,25.0,83,0.00,,,0.00,VWS V14.01,2013-01-01 08:41:00,
2013-01-01 03:46:00,27.9,21.6,29.71,NW,306,15.0,17.0,77,0.00,,,0.00,VWS V14.01,2013-01-01 08:46:00,
2013-01-01 03:51:00,28.0,21.4,29.71,NW,320,15.0,18.0,76,0.00,,,0.00,VWS V14.01,2013-01-01 08:51:00,
2013-01-01 03:55:00,27.9,20.4,29.71,North,10,11.0,12.0,73,0.00,,,0.00,VWS V14.01,2013-01-01 08:55:00,
2013-01-01 04:00:00,27.8,20.0,29.71,NNE,26,10.0,20.0,72,0.00,,,0.00,VWS V14.01,2013-01-01 09:00:00,
2013-01-01 04:05:00,27.8,19.3,29.71,NNW,334,3.0,29.0,70,0.00,,,0.00,VWS V14.01,2013-01-01 09:05:00,
2013-01-01 04:11:00,27.6,19.1,29.71,NNE,25,3.0,29.0,70,0.00,,,0.00,VWS V14.01,2013-01-01 09:11:00,
2013-01-01 04:16:00,27.5,19.0,29.72,North,350,12.0,16.0,70,0.00,,,0.00,VWS V14.01,2013-01-01 09:16:00,
2013-01-01 04:20:00,27.3,18.5,29.72,NW,306,4.0,16.0,69,0.00,,,0.00,VWS V14.01,2013-01-01 09:20:00,
2013-01-01 04:25:00,27.1,18.3,29.73,North,355,14.0,17.0,69,0.00,,,0.00,VWS V14.01,2013-01-01 09:25:00,
2013-01-01 04:30:00,26.9,17.8,29.73,North,349,19.0,20.0,68,0.00,,,0.00,VWS V14.01,2013-01-01 09:30:00,
2013-01-01 04:35:00,26.6,17.5,29.74,North,5,3.0,8.0,68,0.00,,,0.00,VWS V14.01,2013-01-01 09:35:00,
2013-01-01 04:40:00,26.4,16.9,29.74,NNW,340,5.0,15.0,67,0.00,,,0.00,VWS V14.01,2013-01-01 09:40:00,
2013-01-01 04:45:00,26.4,16.6,29.75,NNW,339,11.0,18.0,66,0.00,,,0.00,VWS V14.01,2013-01-01 09:45:00,
2013-01-01 04:50:00,26.3,16.5,29.75,NNW,339,12.0,22.0,66,0.00,,,0.00,VWS V14.01,2013-01-01 09:50:00,
2013-01-01 04:55:00,26.1,16.7,29.75,NNW,332,11.0,18.0,67,0.00,,,0.00,VWS V14.01,2013-01-01 09:55:00,
2013-01-01 05:00:00,25.9,17.1,29.76,NE,43,8.0,19.0,69,0.00,,,0.00,VWS V14.01,2013-01-01 10:00:00,
2013-01-01 05:05:00,25.7,17.9,29.76,North,355,0.0,6.0,72,0.00,,,0.00,VWS V14.01,2013-01-01 10:05:00,
2013-01-01 05:10:00,25.3,19.4,29.76,NNE,13,2.0,12.0,78,0.00,,,0.00,VWS V14.01,2013-01-01 10:10:00,
2013-01-01 05:15:00,24.6,20.2,29.77,North,9,2.0,6.0,83,0.00,,,0.00,VWS V14.01,2013-01-01 10:15:00,
2013-01-01 05:20:00,23.2,19.1,29.78,NNW,341,5.0,9.0,84,0.00,,,0.00,VWS V14.01,2013-01-01 10:20:00,
2013-01-01 05:25:00,21.8,17.7,29.78,NNW,332,4.0,15.0,84,0.00,,,0.00,VWS V14.01,2013-01-01 10:25:00,
2013-01-01 05:30:00,21.1,17.3,29.78,NE,41,3.0,16.0,85,0.00,,,0.00,VWS V14.01,2013-01-01 10:30:00,
2013-01-01 05:35:00,20.7,17.2,29.79,ENE,69,2.0,5.0,86,0.00,,,0.00,VWS V14.01,2013-01-01 10:35:00,
2013-01-01 05:40:00,20.5,16.7,29.79,NNW,337,3.0,9.0,85,0.00,,,0.00,VWS V14.01,2013-01-01 10:40:00,
2013-01-01 05:45:00,20.4,16.9,29.79,NE,40,1.0,8.0,86,0.00,,,0.00,VWS V14.01,2013-01-01 10:45:00,
2013-01-01 05:50:00,20.1,18.1,29.79,NNE,15,0.0,11.0,92,0.00,,,0.00,VWS V14.01,2013-01-01 10:50:00,
2013-01-01 05:55:00,19.9,15.9,29.80,NE,34,4.0,10.0,84,0.00,,,0.00,VWS V14.01,2013-01-01 10:55:00,
2013-01-01 06:00:00,19.6,15.3,29.80,NE,46,3.0,12.0,83,0.00,,,0.00,VWS V14.01,2013-01-01 11:00:00,
2013-01-01 06:05:00,19.5,14.9,29.80,NE,34,3.0,4.0,82,0.00,,,0.00,VWS V14.01,2013-01-01 11:05:00,
2013-01-01 06:10:00,19.4,14.5,29.80,NNE,23,1.0,11.0,81,0.00,,,0.00,VWS V14.01,2013-01-01 11:10:00,
2013-01-01 06:15:00,19.4,14.8,29.81,ENE,66,2.0,4.0,82,0.00,,,0.00,VWS V14.01,2013-01-01 11:15:00,
2013-01-01 06:21:00,19.1,14.2,29.81,NNE,26,3.0,12.0,81,0.00,,,0.00,VWS V14.01,2013-01-01 11:21:00,
2013-01-01 06:26:00,18.9,14.0,29.82,North,9,2.0,4.0,81,0.00,,,0.00,VWS V14.01,2013-01-01 11:26:00,
2013-01-01 06:31:00,18.6,13.5,29.82,NNE,24,2.0,7.0,80,0.00,,,0.00,VWS V14.01,2013-01-01 11:31:00,
2013-01-01 06:36:00,18.4,13.3,29.81,NNE,28,3.0,5.0,80,0.00,,,0.00,VWS V14.01,2013-01-01 11:36:00,
2013-01-01 06:41:00,18.2,13.1,29.82,NE,44,0.0,8.0,80,0.00,,,0.00,VWS V14.01,2013-01-01 11:41:00,
2013-01-01 06:46:00,18.0,12.9,29.82,ENE,65,1.0,3.0,80,0.00,,,0.00,VWS V14.01,2013-01-01 11:46:00,
2013-01-01 06:50:00,17.9,12.8,29.82,NNE,17,0.0,7.0,80,0.00,,,0.00,VWS V14.01,2013-01-01 11:50:00,
2013-01-01 06:55:00,17.9,12.8,29.83,NE,54,8.0,8.0,80,0.00,,,0.00,VWS V14.01,2013-01-01 11:55:00,
2013-01-01 07:00:00,17.8,12.7,29.83,East,84,5.0,8.0,80,0.00,,,0.00,VWS V14.01,2013-01-01 12:00:00,
2013-01-01 07:05:00,17.7,12.9,29.83,NE,50,4.0,6.0,81,0.00,,,0.00,VWS V14.01,2013-01-01 12:05:00,
2013-01-01 07:10:00,17.6,12.5,29.83,NE,53,3.0,7.0,80,0.00,,,0.00,VWS V14.01,2013-01-01 12:10:00,
2013-01-01 07:15:00,17.6,12.2,29.84,East,92,4.0,4.0,79,0.00,,,0.00,VWS V14.01,2013-01-01 12:15:00,
2013-01-01 07:20:00,17.5,12.4,29.84,NNE,30,5.0,6.0,80,0.00,,,0.00,VWS V14.01,2013-01-01 12:20:00,
2013-01-01 07:25:00,17.4,12.0,29.84,NNW,348,0.0,4.0,79,0.00,,,0.00,VWS V14.01,2013-01-01 12:25:00,
2013-01-01 07:30:00,17.2,12.4,29.84,NNW,344,0.0,6.0,81,0.00,,,0.00,VWS V14.01,2013-01-01 12:30:00,
2013-01-01 07:35:00,17.1,12.6,29.84,NNW,340,0.0,3.0,82,0.00,,,0.00,VWS V14.01,2013-01-01 12:35:00,
2013-01-01 07:40:00,16.8,12.3,29.84,ENE,59,0.0,6.0,82,0.00,,,0.00,VWS V14.01,2013-01-01 12:40:00,
2013-01-01 07:45:00,16.5,11.7,29.84,NNW,342,0.0,7.0,81,0.00,,,0.00,VWS V14.01,2013-01-01 12:45:00,
2013-01-01 07:50:00,16.5,12.0,29.85,North,360,0.0,7.0,82,0.00,,,0.00,VWS V14.01,2013-01-01 12:50:00,
2013-01-01 07:55:00,16.5,12.0,29.85,NE,41,2.0,2.0,82,0.00,,,0.00,VWS V14.01,2013-01-01 12:55:00,
2013-01-01 08:00:00,16.3,12.1,29.86,North,360,0.0,8.0,83,0.00,,,0.00,VWS V14.01,2013-01-01 13:00:00,
2013-01-01 08:05:00,16.2,12.0,29.85,ENE,69,2.0,2.0,83,0.00,,,0.00,VWS V14.01,2013-01-01 13:05:00,
2013-01-01 08:10:00,16.0,11.8,29.86,North,350,0.0,6.0,83,0.00,,,0.00,VWS V14.01,2013-01-01 13:10:00,
2013-01-01 08:15:00,16.1,12.1,29.86,NE,44,1.0,2.0,84,0.00,,,0.00,VWS V14.01,2013-01-01 13:15:00,
2013-01-01 08:21:00,16.0,11.8,29.86,North,9,1.0,6.0,83,0.00,,,0.00,VWS V14.01,2013-01-01 13:21:00,
2013-01-01 08:26:00,15.9,11.7,29.86,ENE,66,2.0,3.0,83,0.00,,,0.00,VWS V14.01,2013-01-01 13:26:00,
2013-01-01 08:31:00,15.9,11.4,29.86,ENE,76,0.0,6.0,82,0.00,,,0.00,VWS V14.01,2013-01-01 13:31:00,
2013-01-01 08:36:00,15.9,11.4,29.86,ENE,59,2.0,2.0,82,0.00,,,0.00,VWS V14.01,2013-01-01 13:36:00,
2013-01-01 08:41:00,15.8,11.0,29.86,NE,34,4.0,5.0,81,0.00,,,0.00,VWS V14.01,2013-01-01 13:41:00,
2013-01-01 08:46:00,15.7,10.9,29.86,NE,49,2.0,4.0,81,0.00,,,0.00,VWS V14.01,2013-01-01 13:46:00,
2013-01-01 08:51:00,15.7,10.9,29.86,NE,51,0.0,6.0,81,0.00,,,0.00,VWS V14.01,2013-01-01 13:51:00,
2013-01-01 08:56:00,15.8,11.3,29.87,NE,50,1.0,3.0,82,0.00,,,0.00,VWS V14.01,2013-01-01 13:56:00,
2013-01-01 09:01:00,15.9,11.1,29.87,NNE,27,3.0,5.0,81,0.00,,,0.00,VWS V14.01,2013-01-01 14:01:00,
2013-01-01 09:06:00,15.6,10.5,29.87,NE,44,1.0,5.0,80,0.00,,,0.00,VWS V14.01,2013-01-01 14:06:00,
2013-01-01 09:10:00,15.4,10.1,29.87,East,90,2.0,8.0,79,0.00,,,0.00,VWS V14.01,2013-01-01 14:10:00,
2013-01-01 09:15:00,15.2,9.9,29.87,NW,326,2.0,5.0,79,0.00,,,0.00,VWS V14.01,2013-01-01 14:15:00,
2013-01-01 09:20:00,14.9,9.3,29.87,NNW,330,6.0,11.0,78,0.00,,,0.00,VWS V14.01,2013-01-01 14:20:00,
2013-01-01 09:25:00,14.8,9.5,29.87,NNW,327,3.0,5.0,79,0.00,,,0.00,VWS V14.01,2013-01-01 14:25:00,
2013-01-01 09:30:00,14.8,9.2,29.88,NNW,332,1.0,7.0,78,0.00,,,0.00,VWS V14.01,2013-01-01 14:30:00,
2013-01-01 09:35:00,14.9,9.3,29.88,North,360,8.0,9.0,78,0.00,,,0.00,VWS V14.01,2013-01-01 14:35:00,
2013-01-01 09:40:00,14.6,8.7,29.88,NNW,338,3.0,9.0,77,0.00,,,0.00,VWS V14.01,2013-01-01 14:40:00,
2013-01-01 09:45:00,14.6,8.7,29.88,North,355,5.0,9.0,77,0.00,,,0.00,VWS V14.01,2013-01-01 14:45:00,
2013-01-01 09:50:00,14.4,8.2,29.88,NW,326,4.0,9.0,76,0.00,,,0.00,VWS V14.01,2013-01-01 14:50:00,
2013-01-01 09:55:00,14.3,7.8,29.88,NNW,329,1.0,4.0,75,0.00,,,0.00,VWS V14.01,2013-01-01 14:55:00,
2013-01-01 10:00:00,14.3,7.8,29.87,North,360,0.0,7.0,75,0.00,,,0.00,VWS V14.01,2013-01-01 15:00:00,
2013-01-01 10:05:00,14.5,8.0,29.88,NNW,334,3.0,5.0,75,0.00,,,0.00,VWS V14.01,2013-01-01 15:05:00,
2013-01-01 10:10:00,14.6,8.4,29.88,WNW,298,5.0,7.0,76,0.00,,,0.00,VWS V14.01,2013-01-01 15:10:00,
2013-01-01 10:15:00,14.7,7.9,29.88,NNW,334,5.0,5.0,74,0.00,,,0.00,VWS V14.01,2013-01-01 15:15:00,
2013-01-01 10:20:00,14.6,8.1,29.88,NW,321,5.0,6.0,75,0.00,,,0.00,VWS V14.01,2013-01-01 15:20:00,
2013-01-01 10:25:00,14.5,7.7,29.88,NW,313,0.0,4.0,74,0.00,,,0.00,VWS V14.01,2013-01-01 15:25:00,
2013-01-01 10:30:00,14.7,8.2,29.88,WNW,285,2.0,6.0,75,0.00,,,0.00,VWS V14.01,2013-01-01 15:30:00,
2013-01-01 10:35:00,14.8,8.0,29.88,WNW,290,5.0,7.0,74,0.00,,,0.00,VWS V14.01,2013-01-01 15:35:00,
2013-01-01 10:40:00,15.1,8.3,29.88,NW,317,4.0,7.0,74,0.00,,,0.00,VWS V14.01,2013-01-01 15:40:00,
2013-01-01 10:45:00,15.0,7.9,29.88,WNW,298,4.0,6.0,73,0.00,,,0.00,VWS V14.01,2013-01-01 15:45:00,
2013-01-01 10:50:00,15.0,7.9,29.88,NW,308,3.0,12.0,73,0.00,,,0.00,VWS V14.01,2013-01-01 15:50:00,
2013-01-01 10:55:00,14.9,7.8,29.87,WNW,288,3.0,5.0,73,0.00,,,0.00,VWS V14.01,2013-01-01 15:55:00,
2013-01-01 11:00:00,14.9,7.8,29.87,West,279,3.0,7.0,73,0.00,,,0.00,VWS V14.01,2013-01-01 16:00:00,
2013-01-01 11:05:00,14.8,8.0,29.87,NNW,346,7.0,8.0,74,0.00,,,0.00,VWS V14.01,2013-01-01 16:05:00,
2013-01-01 11:10:00,14.7,7.9,29.87,NNW,348,4.0,12.0,74,0.00,,,0.00,VWS V14.01,2013-01-01 16:10:00,
2013-01-01 11:15:00,15.0,8.2,29.87,NW,326,5.0,5.0,74,0.00,,,0.00,VWS V14.01,2013-01-01 16:15:00,
2013-01-01 11:20:00,15.1,7.4,29.87,NNW,343,8.0,10.0,71,0.00,,,0.00,VWS V14.01,2013-01-01 16:20:00,
2013-01-01 11:25:00,15.1,7.4,29.87,NNW,338,4.0,6.0,71,0.00,,,0.00,VWS V14.01,2013-01-01 16:25:00,
2013-01-01 11:30:00,15.1,7.1,29.87,NW,306,3.0,8.0,70,0.00,,,0.00,VWS V14.01,2013-01-01 16:30:00,
2013-01-01 11:35:00,15.4,7.4,29.87,NNW,346,4.0,8.0,70,0.00,,,0.00,VWS V14.01,2013-01-01 16:35:00,
2013-01-01 11:40:00,15.3,7.0,29.87,NNW,334,9.0,10.0,69,0.00,,,0.00,VWS V14.01,2013-01-01 16:40:00,
2013-01-01 11:45:00,15.7,7.7,29.87,WNW,300,7.0,9.0,70,0.00,,,0.00,VWS V14.01,2013-01-01 16:45:00,
2013-01-01 11:50:00,15.8,7.4,29.87,WSW,240,2.0,9.0,69,0.00,,,0.00,VWS V14.01,2013-01-01 16:50:00,
2013-01-01 11:55:00,16.5,8.1,29.86,NNW,333,4.0,10.0,69,0.00,,,0.00,VWS V14.01,2013-01-01 16:55:00,
2013-01-01 12:00:00,16.0,7.3,29.86,NNW,331,6.0,11.0,68,0.00,,,0.00,VWS V14.01,2013-01-01 17:00:00,
2013-01-01 12:05:00,15.9,7.5,29.86,NNW,345,3.0,6.0,69,0.00,,,0.00,VWS V14.01,2013-01-01 17:05:00,
2013-01-01 12:10:00,15.9,6.9,29.86,NW,308,3.0,6.0,67,0.00,,,0.00,VWS V14.01,2013-01-01 17:10:00,
2013-01-01 12:15:00,15.9,6.9,29.86,NW,305,4.0,8.0,67,0.00,,,0.00,VWS V14.01,2013-01-01 17:15:00,
2013-01-01 12:20:00,15.8,6.8,29.86,West,271,6.0,16.0,67,0.00,,,0.00,VWS V14.01,2013-01-01 17:20:00,
2013-01-01 12:25:00,15.7,6.4,29.86,WNW,288,14.0,16.0,66,0.00,,,0.00,VWS V14.01,2013-01-01 17:25:00,
2013-01-01 12:30:00,15.5,5.5,29.86,NW,315,7.0,19.0,64,0.00,,,0.00,VWS V14.01,2013-01-01 17:30:00,
2013-01-01 12:35:00,15.7,5.7,29.86,NW,313,8.0,17.0,64,0.00,,,0.00,VWS V14.01,2013-01-01 17:35:00,
2013-01-01 12:40:00,15.4,5.1,29.86,NW,304,17.0,21.0,63,0.00,,,0.00,VWS V14.01,2013-01-01 17:40:00,
2013-01-01 12:45:00,15.2,5.6,29.86,NNW,342,4.0,13.0,65,0.00,,,0.00,VWS V14.01,2013-01-01 17:45:00,
2013-01-01 12:50:00,15.3,5.7,29.86,SW,226,10.0,15.0,65,0.00,,,0.00,VWS V14.01,2013-01-01 17:50:00,
2013-01-01 12:55:00,15.5,6.2,29.86,West,271,6.0,11.0,66,0.00,,,0.00,VWS V14.01,2013-01-01 17:55:00,
2013-01-01 13:00:00,15.8,6.1,29.86,West,264,6.0,12.0,65,0.00,,,0.00,VWS V14.01,2013-01-01 18:00:00,
2013-01-01 13:05:00,16.1,6.1,29.86,NNW,328,8.0,12.0,64,0.00,,,0.00,VWS V14.01,2013-01-01 18:05:00,
2013-01-01 13:10:00,15.5,5.5,29.86,WNW,298,11.0,17.0,64,0.00,,,0.00,VWS V14.01,2013-01-01 18:10:00,
2013-01-01 13:15:00,15.8,6.1,29.86,North,355,6.0,8.0,65,0.00,,,0.00,VWS V14.01,2013-01-01 18:15:00,
2013-01-01 13:20:00,15.7,6.0,29.86,NW,320,12.0,18.0,65,0.00,,,0.00,VWS V14.01,2013-01-01 18:20:00,
2013-01-01 13:25:00,15.5,5.8,29.85,NNW,338,7.0,8.0,65,0.00,,,0.00,VWS V14.01,2013-01-01 18:25:00,
2013-01-01 13:30:00,15.4,5.4,29.85,NW,323,6.0,21.0,64,0.00,,,0.00,VWS V14.01,2013-01-01 18:30:00,
2013-01-01 13:35:00,15.4,5.4,29.85,WNW,292,14.0,14.0,64,0.00,,,0.00,VWS V14.01,2013-01-01 18:35:00,
2013-01-01 13:40:00,15.0,5.4,29.85,WNW,300,9.0,15.0,65,0.00,,,0.00,VWS V14.01,2013-01-01 18:40:00,
2013-01-01 13:45:00,15.2,5.6,29.85,West,275,10.0,10.0,65,0.00,,,0.00,VWS V14.01,2013-01-01 18:45:00,
2013-01-01 13:50:00,15.4,5.4,29.85,WSW,246,8.0,10.0,64,0.00,,,0.00,VWS V14.01,2013-01-01 18:50:00,
2013-01-01 13:55:00,15.3,5.7,29.85,NW,321,11.0,13.0,65,0.00,,,0.00,VWS V14.01,2013-01-01 18:55:00,
2013-01-01 14:00:00,15.1,5.1,29.85,NNW,343,10.0,20.0,64,0.00,,,0.00,VWS V14.01,2013-01-01 19:00:00,
2013-01-01 14:05:00,15.0,4.3,29.86,NW,314,9.0,9.0,62,0.00,,,0.00,VWS V14.01,2013-01-01 19:05:00,
2013-01-01 14:10:00,14.8,4.2,29.86,WNW,300,10.0,20.0,62,0.00,,,0.00,VWS V14.01,2013-01-01 19:10:00,
2013-01-01 14:15:00,14.8,3.8,29.86,NNW,343,5.0,12.0,61,0.00,,,0.00,VWS V14.01,2013-01-01 19:15:00,
2013-01-01 14:20:00,14.6,4.0,29.86,WNW,298,12.0,15.0,62,0.00,,,0.00,VWS V14.01,2013-01-01 19:20:00,
2013-01-01 14:25:00,14.8,3.8,29.86,NW,312,3.0,12.0,61,0.00,,,0.00,VWS V14.01,2013-01-01 19:25:00,
2013-01-01 14:30:00,14.6,4.3,29.86,WNW,296,18.0,19.0,63,0.00,,,0.00,VWS V14.01,2013-01-01 19:30:00,
2013-01-01 14:35:00,14.4,4.1,29.86,West,277,5.0,8.0,63,0.00,,,0.00,VWS V14.01,2013-01-01 19:35:00,
2013-01-01 14:40:00,14.4,4.8,29.86,North,355,9.0,11.0,65,0.00,,,0.00,VWS V14.01,2013-01-01 19:40:00,
2013-01-01 14:45:00,14.4,4.5,29.86,WSW,256,8.0,12.0,64,0.00,,,0.00,VWS V14.01,2013-01-01 19:45:00,
2013-01-01 14:50:00,14.4,4.1,29.86,NW,321,15.0,19.0,63,0.00,,,0.00,VWS V14.01,2013-01-01 19:50:00,
2013-01-01 14:55:00,14.2,3.9,29.86,WSW,245,1.0,8.0,63,0.00,,,0.00,VWS V14.01,2013-01-01 19:55:00,
2013-01-01 15:00:00,14.2,3.9,29.86,WNW,295,9.0,14.0,63,0.00,,,0.00,VWS V14.01,2013-01-01 20:00:00,
2013-01-01 15:05:00,14.1,3.5,29.86,NW,325,5.0,14.0,62,0.00,,,0.00,VWS V14.01,2013-01-01 20:05:00,
2013-01-01 15:10:00,14.4,3.8,29.87,NW,308,13.0,16.0,62,0.00,,,0.00,VWS V14.01,2013-01-01 20:10:00,
2013-01-01 15:15:00,14.2,3.6,29.86,NNW,328,11.0,20.0,62,0.00,,,0.00,VWS V14.01,2013-01-01 20:15:00,
2013-01-01 15:20:00,14.3,4.0,29.86,SSW,212,2.0,20.0,63,0.00,,,0.00,VWS V14.01,2013-01-01 20:20:00,
2013-01-01 15:25:00,14.4,4.1,29.86,NW,319,12.0,13.0,63,0.00,,,0.00,VWS V14.01,2013-01-01 20:25:00,
2013-01-01 15:30:00,14.3,4.0,29.86,NNW,345,3.0,15.0,63,0.00,,,0.00,VWS V14.01,2013-01-01 20:30:00,
2013-01-01 15:35:00,14.3,4.4,29.86,NW,323,6.0,8.0,64,0.00,,,0.00,VWS V14.01,2013-01-01 20:35:00,
2013-01-01 15:40:00,14.1,4.5,29.86,North,351,9.0,9.0,65,0.00,,,0.00,VWS V14.01,2013-01-01 20:40:00,
2013-01-01 15:45:00,13.7,3.8,29.86,NW,319,11.0,15.0,64,0.00,,,0.00,VWS V14.01,2013-01-01 20:45:00,
2013-01-01 15:50:00,13.4,3.2,29.86,NNW,329,4.0,16.0,63,0.00,,,0.00,VWS V14.01,2013-01-01 20:50:00,
2013-01-01 15:55:00,13.2,3.0,29.87,NNW,346,6.0,9.0,63,0.00,,,0.00,VWS V14.01,2013-01-01 20:55:00,
2013-01-01 16:00:00,13.0,3.5,29.87,NNW,333,6.0,9.0,65,0.00,,,0.00,VWS V14.01,2013-01-01 21:00:00,
2013-01-01 16:05:00,12.8,2.9,29.87,WNW,293,2.0,3.0,64,0.00,,,0.00,VWS V14.01,2013-01-01 21:05:00,
2013-01-01 16:10:00,12.6,3.1,29.87,NNW,346,9.0,9.0,65,0.00,,,0.00,VWS V14.01,2013-01-01 21:10:00,
2013-01-01 16:15:00,12.5,3.0,29.88,West,279,0.0,6.0,65,0.00,,,0.00,VWS V14.01,2013-01-01 21:15:00,
2013-01-01 16:20:00,12.4,2.9,29.87,North,5,10.0,11.0,65,0.00,,,0.00,VWS V14.01,2013-01-01 21:20:00,
2013-01-01 16:25:00,12.3,3.1,29.88,West,273,2.0,5.0,66,0.00,,,0.00,VWS V14.01,2013-01-01 21:25:00,
2013-01-01 16:30:00,12.1,2.9,29.88,SW,231,8.0,9.0,66,0.00,,,0.00,VWS V14.01,2013-01-01 21:30:00,
2013-01-01 16:35:00,12.1,2.9,29.88,North,355,6.0,8.0,66,0.00,,,0.00,VWS V14.01,2013-01-01 21:35:00,
2013-01-01 16:40:00,12.0,2.8,29.89,NNW,338,4.0,10.0,66,0.00,,,0.00,VWS V14.01,2013-01-01 21:40:00,
2013-01-01 16:45:00,11.8,2.7,29.89,NNW,341,4.0,6.0,66,0.00,,,0.00,VWS V14.01,2013-01-01 21:45:00,
2013-01-01 16:50:00,11.7,2.9,29.89,WNW,289,4.0,9.0,67,0.00,,,0.00,VWS V14.01,2013-01-01 21:50:00,
2013-01-01 16:55:00,11.6,2.8,29.89,NNW,328,2.0,3.0,67,0.00,,,0.00,VWS V14.01,2013-01-01 21:55:00,
2013-01-01 17:00:00,11.5,2.7,29.89,North,5,2.0,8.0,67,0.00,,,0.00,VWS V14.01,2013-01-01 22:00:00,
2013-01-01 17:05:00,11.6,2.8,29.89,NNW,332,3.0,6.0,67,0.00,,,0.00,VWS V14.01,2013-01-01 22:05:00,
2013-01-01 17:10:00,11.6,2.5,29.89,NNW,330,1.0,10.0,66,0.00,,,0.00,VWS V14.01,2013-01-01 22:10:00,
2013-01-01 17:15:00,11.4,2.3,29.90,NNE,13,3.0,3.0,66,0.00,,,0.00,VWS V14.01,2013-01-01 22:15:00,
2013-01-01 17:20:00,11.1,2.6,29.90,NW,304,0.0,6.0,68,0.00,,,0.00,VWS V14.01,2013-01-01 22:20:00,
2013-01-01 17:25:00,10.8,2.3,29.90,WNW,285,4.0,4.0,68,0.00,,,0.00,VWS V14.01,2013-01-01 22:25:00,
2013-01-01 17:30:00,10.8,2.6,29.90,WNW,294,2.0,6.0,69,0.00,,,0.00,VWS V14.01,2013-01-01 22:30:00,
2013-01-01 17:35:00,11.0,2.5,29.91,SSW,205,3.0,5.0,68,0.00,,,0.00,VWS V14.01,2013-01-01 22:35:00,
2013-01-01 17:40:00,10.9,2.7,29.91,WSW,253,1.0,6.0,69,0.00,,,0.00,VWS V14.01,2013-01-01 22:40:00,
2013-01-01 17:45:00,10.8,2.6,29.91,NW,304,4.0,6.0,69,0.00,,,0.00,VWS V14.01,2013-01-01 22:45:00,
2013-01-01 17:50:00,10.7,2.5,29.91,NW,306,2.0,9.0,69,0.00,,,0.00,VWS V14.01,2013-01-01 22:50:00,
2013-01-01 17:55:00,10.7,2.5,29.91,WNW,300,7.0,7.0,69,0.00,,,0.00,VWS V14.01,2013-01-01 22:55:00,
2013-01-01 18:00:00,10.6,2.5,29.91,West,272,1.0,9.0,69,0.00,,,0.00,VWS V14.01,2013-01-01 23:00:00,
2013-01-01 18:05:00,10.7,2.5,29.91,WNW,297,7.0,12.0,69,0.00,,,0.00,VWS V14.01,2013-01-01 23:05:00,
2013-01-01 18:10:00,10.8,2.3,29.92,WNW,300,5.0,12.0,68,0.00,,,0.00,VWS V14.01,2013-01-01 23:10:00,
2013-01-01 18:15:00,10.8,2.3,29.92,NNW,331,8.0,13.0,68,0.00,,,0.00,VWS V14.01,2013-01-01 23:15:00,
2013-01-01 18:20:00,10.7,2.2,29.92,NNW,331,6.0,13.0,68,0.00,,,0.00,VWS V14.01,2013-01-01 23:20:00,
2013-01-01 18:25:00,10.7,2.2,29.92,North,5,5.0,7.0,68,0.00,,,0.00,VWS V14.01,2013-01-01 23:25:00,
2013-01-01 18:30:00,10.5,2.0,29.92,WNW,300,9.0,16.0,68,0.00,,,0.00,VWS V14.01,2013-01-01 23:30:00,
2013-01-01 18:35:00,10.5,2.0,29.93,WNW,288,7.0,8.0,68,0.00,,,0.00,VWS V14.01,2013-01-01 23:35:00,
2013-01-01 18:40:00,10.6,1.8,29.93,WSW,242,3.0,13.0,67,0.00,,,0.00,VWS V14.01,2013-01-01 23:40:00,
2013-01-01 18:45:00,10.4,2.0,29.93,WNW,300,8.0,11.0,68,0.00,,,0.00,VWS V14.01,2013-01-01 23:45:00,
2013-01-01 18:50:00,10.3,1.9,29.94,WNW,295,9.0,15.0,68,0.00,,,0.00,VWS V14.01,2013-01-01 23:50:00,
2013-01-01 18:55:00,10.3,1.9,29.94,NW,312,12.0,14.0,68,0.00,,,0.00,VWS V14.01,2013-01-01 23:55:00,
2013-01-01 19:00:00,10.4,2.0,29.94,NW,313,9.0,17.0,68,0.00,,,0.00,VWS V14.01,2013-01-02 00:00:00,
2013-01-01 19:05:00,10.4,2.3,29.94,WNW,300,11.0,11.0,69,0.00,,,0.00,VWS V14.01,2013-01-02 00:05:00,
2013-01-01 19:10:00,10.3,2.2,29.94,NNW,342,4.0,13.0,69,0.00,,,0.00,VWS V14.01,2013-01-02 00:10:00,
2013-01-01 19:15:00,10.1,2.3,29.95,WNW,290,8.0,8.0,70,0.00,,,0.00,VWS V14.01,2013-01-02 00:15:00,
2013-01-01 19:20:00,10.1,2.3,29.94,WNW,289,5.0,18.0,70,0.00,,,0.00,VWS V14.01,2013-01-02 00:20:00,
2013-01-01 19:25:00,10.1,2.3,29.95,WNW,299,3.0,5.0,70,0.00,,,0.00,VWS V14.01,2013-01-02 00:25:00,
2013-01-01 19:30:00,9.9,2.4,29.95,WNW,303,12.0,12.0,71,0.00,,,0.00,VWS V14.01,2013-01-02 00:30:00,
2013-01-01 19:35:00,10.0,2.5,29.95,WNW,303,12.0,12.0,71,0.00,,,0.00,VWS V14.01,2013-01-02 00:35:00,
2013-01-01 19:40:00,10.0,2.5,29.95,NNW,339,5.0,14.0,71,0.00,,,0.00,VWS V14.01,2013-01-02 00:40:00,
2013-01-01 19:45:00,10.0,2.5,29.95,West,273,9.0,9.0,71,0.00,,,0.00,VWS V14.01,2013-01-02 00:45:00,
2013-01-01 19:50:00,9.9,2.4,29.96,West,279,8.0,14.0,71,0.00,,,0.00,VWS V14.01,2013-01-02 00:50:00,
2013-01-01 19:55:00,9.9,2.4,29.96,NW,325,16.0,25.0,71,0.00,,,0.00,VWS V14.01,2013-01-02 00:55:00,
2013-01-01 20:00:00,10.0,2.2,29.96,NNW,345,10.0,25.0,70,0.00,,,0.00,VWS V14.01,2013-01-02 01:00:00,
2013-01-01 20:05:00,9.9,2.1,29.96,WNW,285,8.0,11.0,70,0.00,,,0.00,VWS V14.01,2013-01-02 01:05:00,
2013-01-01 20:10:00,9.8,2.0,29.96,West,267,8.0,17.0,70,0.00,,,0.00,VWS V14.01,2013-01-02 01:10:00,
2013-01-01 20:15:00,9.6,2.1,29.96,WNW,302,4.0,6.0,71,0.00,,,0.00,VWS V14.01,2013-01-02 01:15:00,
2013-01-01 20:20:00,9.6,2.1,29.96,NW,315,4.0,14.0,71,0.00,,,0.00,VWS V14.01,2013-01-02 01:20:00,
2013-01-01 20:25:00,9.6,1.8,29.96,North,10,10.0,10.0,70,0.00,,,0.00,VWS V14.01,2013-01-02 01:25:00,
2013-01-01 20:30:00,9.6,1.8,29.96,WNW,295,6.0,10.0,70,0.00,,,0.00,VWS V14.01,2013-01-02 01:30:00,
2013-01-01 20:35:00,9.6,1.8,29.96,NNW,341,5.0,5.0,70,0.00,,,0.00,VWS V14.01,2013-01-02 01:35:00,
2013-01-01 20:40:00,9.9,1.5,29.96,NNW,334,4.0,14.0,68,0.00,,,0.00,VWS V14.01,2013-01-02 01:40:00,
2013-01-01 20:45:00,9.7,1.6,29.95,WNW,291,6.0,10.0,69,0.00,,,0.00,VWS V14.01,2013-01-02 01:45:00,
2013-01-01 20:50:00,9.9,1.5,29.95,NNW,346,3.0,11.0,68,0.00,,,0.00,VWS V14.01,2013-01-02 01:50:00,
2013-01-01 20:55:00,9.8,1.7,29.95,NNW,336,3.0,3.0,69,0.00,,,0.00,VWS V14.01,2013-01-02 01:55:00,
2013-01-01 21:00:00,9.7,1.6,29.95,SSW,210,4.0,12.0,69,0.00,,,0.00,VWS V14.01,2013-01-02 02:00:00,
2013-01-01 21:05:00,9.8,1.7,29.95,NNW,333,6.0,6.0,69,0.00,,,0.00,VWS V14.01,2013-01-02 02:05:00,
2013-01-01 21:10:00,9.9,1.8,29.95,West,277,7.0,12.0,69,0.00,,,0.00,VWS V14.01,2013-01-02 02:10:00,
2013-01-01 21:15:00,10.0,1.9,29.95,NW,306,3.0,8.0,69,0.00,,,0.00,VWS V14.01,2013-01-02 02:15:00,
2013-01-01 21:20:00,9.9,2.1,29.95,North,5,8.0,11.0,70,0.00,,,0.00,VWS V14.01,2013-01-02 02:20:00,
2013-01-01 21:25:00,9.9,2.1,29.95,NW,311,4.0,8.0,70,0.00,,,0.00,VWS V14.01,2013-01-02 02:25:00,
2013-01-01 21:30:00,10.1,2.0,29.95,North,10,1.0,10.0,69,0.00,,,0.00,VWS V14.01,2013-01-02 02:30:00,
2013-01-01 21:35:00,10.0,2.2,29.95,WSW,257,4.0,6.0,70,0.00,,,0.00,VWS V14.01,2013-01-02 02:35:00,
2013-01-01 21:40:00,10.2,2.1,29.95,NW,319,4.0,11.0,69,0.00,,,0.00,VWS V14.01,2013-01-02 02:40:00,
2013-01-01 21:45:00,10.3,2.2,29.95,SSW,192,0.0,2.0,69,0.00,,,0.00,VWS V14.01,2013-01-02 02:45:00,
2013-01-01 21:50:00,10.1,2.6,29.95,SW,216,4.0,7.0,71,0.00,,,0.00,VWS V14.01,2013-01-02 02:50:00,
2013-01-01 21:55:00,10.1,2.3,29.95,NNW,335,1.0,4.0,70,0.00,,,0.00,VWS V14.01,2013-01-02 02:55:00,
2013-01-01 22:00:00,10.3,2.5,29.94,East,100,0.0,8.0,70,0.00,,,0.00,VWS V14.01,2013-01-02 03:00:00,
2013-01-01 22:05:00,10.4,2.6,29.95,NNW,336,4.0,4.0,70,0.00,,,0.00,VWS V14.01,2013-01-02 03:05:00,
2013-01-01 22:10:00,10.4,2.3,29.95,NNW,331,5.0,9.0,69,0.00,,,0.00,VWS V14.01,2013-01-02 03:10:00,
2013-01-01 22:15:00,10.6,2.5,29.95,SSE,150,1.0,2.0,69,0.00,,,0.00,VWS V14.01,2013-01-02 03:15:00,
2013-01-01 22:20:00,10.6,2.5,29.95,SE,126,0.0,5.0,69,0.00,,,0.00,VWS V14.01,2013-01-02 03:20:00,
2013-01-01 22:25:00,10.5,2.7,29.95,ESE,110,2.0,4.0,70,0.00,,,0.00,VWS V14.01,2013-01-02 03:25:00,
2013-01-01 22:30:00,10.5,2.7,29.95,SSW,211,0.0,8.0,70,0.00,,,0.00,VWS V14.01,2013-01-02 03:30:00,
2013-01-01 22:35:00,10.1,2.6,29.95,SSW,202,2.0,5.0,71,0.00,,,0.00,VWS V14.01,2013-01-02 03:35:00,
2013-01-01 22:40:00,10.1,2.6,29.95,South,185,4.0,5.0,71,0.00,,,0.00,VWS V14.01,2013-01-02 03:40:00,
2013-01-01 22:45:00,10.3,2.8,29.95,WSW,242,2.0,4.0,71,0.00,,,0.00,VWS V14.01,2013-01-02 03:45:00,
2013-01-01 22:50:00,10.1,2.6,29.96,SW,226,0.0,4.0,71,0.00,,,0.00,VWS V14.01,2013-01-02 03:50:00,
2013-01-01 22:55:00,9.9,3.0,29.95,SW,223,4.0,4.0,73,0.00,,,0.00,VWS V14.01,2013-01-02 03:55:00,
2013-01-01 23:00:00,9.7,2.5,29.95,WNW,284,4.0,10.0,72,0.00,,,0.00,VWS V14.01,2013-01-02 04:00:00,
2013-01-01 23:05:00,10.0,2.8,29.95,WSW,241,2.0,3.0,72,0.00,,,0.00,VWS V14.01,2013-01-02 04:05:00,
2013-01-01 23:10:00,9.7,2.8,29.95,SW,214,0.0,3.0,73,0.00,,,0.00,VWS V14.01,2013-01-02 04:10:00,
2013-01-01 23:15:00,9.5,2.9,29.95,SW,214,0.0,2.0,74,0.00,,,0.00,VWS V14.01,2013-01-02 04:15:00,
2013-01-01 23:20:00,9.5,2.9,29.95,WSW,243,3.0,5.0,74,0.00,,,0.00,VWS V14.01,2013-01-02 04:20:00,
2013-01-01 23:25:00,9.8,3.2,29.95,WSW,241,0.0,0.0,74,0.00,,,0.00,VWS V14.01,2013-01-02 04:25:00,
2013-01-01 23:30:00,9.8,3.2,29.95,WSW,240,3.0,3.0,74,0.00,,,0.00,VWS V14.01,2013-01-02 04:30:00,
2013-01-01 23:35:00,9.9,3.0,29.95,SSW,197,3.0,3.0,73,0.00,,,0.00,VWS V14.01,2013-01-02 04:35:00,
2013-01-01 23:40:00,10.0,3.1,29.95,SSW,209,0.0,3.0,73,0.00,,,0.00,VWS V14.01,2013-01-02 04:40:00,
2013-01-01 23:45:00,10.0,3.1,29.95,WNW,295,1.0,1.0,73,0.00,,,0.00,VWS V14.01,2013-01-02 04:45:00,
2013-01-01 23:50:00,10.0,3.1,29.95,SSW,212,0.0,4.0,73,0.00,,,0.00,VWS V14.01,2013-01-02 04:50:00,
2013-01-01 23:55:00,10.1,3.5,29.94,SSW,212,0.0,1.0,74,0.00,,,0.00,VWS V14.01,2013-01-02 04:55:00,